Weather reports worldwide

Advertisment
St-Auban-Sur-Durance, France (7588): temperature & dewpoint: 16.01.2019 04:00:00 - 22.01.2019 04:00:00 (CET)St-Auban-Sur-Durance, France (7588): temperature 5cm: 16.01.2019 04:00:00 - 22.01.2019 04:00:00 (CET)St-Auban-Sur-Durance, France (7588): temperature -20cm: 16.01.2019 04:00:00 - 22.01.2019 04:00:00 (CET)St-Auban-Sur-Durance, France (7588): wind speed & gusts: 16.01.2019 04:00:00 - 22.01.2019 04:00:00 (CET)St-Auban-Sur-Durance, France (7588): wind direction: 16.01.2019 04:00:00 - 22.01.2019 04:00:00 (CET)St-Auban-Sur-Durance, France (7588): reduced air pressure: 16.01.2019 04:00:00 - 22.01.2019 04:00:00 (CET)St-Auban-Sur-Durance, France (7588): visibility: 16.01.2019 04:00:00 - 22.01.2019 04:00:00 (CET)St-Auban-Sur-Durance, France (7588): sunshine duration: 16.01.2019 04:00:00 - 22.01.2019 04:00:00 (CET)St-Auban-Sur-Durance, France (7588): precipitation: 16.01.2019 04:00:00 - 22.01.2019 04:00:00 (CET)
Date & Time tt [°C] td [°C] tt 5cm [°C] tt -20cm [°C] ff [km/h] ff [kn] fx [km/h] fx [kn] dd ppp [hPa] vv [km] sd [min] rr [mm]
22.01.2019 04:00:00 0,0 -4,4 -0,4 3,9 15 8 29 16 NE 1013,1 20 0 0,0
22.01.2019 03:00:00 0,0 -4,6 -0,2 4,0 11 6 27 15 NE 1014,2 20 0 0,0
22.01.2019 02:00:00 0,4 -4,4 -0,1 4,1 11 6 24 13 NE 1014,4 20 0 0,0
22.01.2019 01:00:00 0,8 -4,2 -0,2 4,1 11 6 30 16 NE 1015,1 20 0 0,0
22.01.2019 00:00:00 1,3 -4,4 1,2 4,2 10 6 30 16 NE 1015,1 20 0 0,0
21.01.2019 23:00:00 1,7 -4,4 1,7 4,3 16 9 32 17 NNE 1015,0 20 0 0,0
21.01.2019 22:00:00 2,4 -4,1 2,5 4,4 16 9 35 19 NNE 1015,0 20 0 0,0
21.01.2019 21:00:00 3,2 -4,3 2,9 4,4 19 10 33 18 N 1014,7 20 0 0,0
21.01.2019 20:00:00 3,9 -4,1 2,0 4,4 16 9 27 14 N 1014,5 20 0 0,0
21.01.2019 19:00:00 3,4 -4,1 1,5 4,4 10 6 22 12 N 1014,2 20 0 0,0
21.01.2019 18:00:00 5,6 -0,5 3,0 4,4 10 5 16 9 W 1013,5 20 3 0,0
21.01.2019 17:00:00 8,3 -4,9 8,1 4,2 9 5 29 15 W 1012,7 20 47 0,0
21.01.2019 16:00:00 9,2 -5,1 13,4 4,1 13 7 26 14 N 1012,3 20 60 0,0
21.01.2019 15:00:00 8,9 -5,8 11,3 3,9 10 6 29 16 N 1012,6 20 60 0,0
21.01.2019 14:00:00 8,4 -4,8 10,8 3,8 14 7 29 16 NNE 1013,1 20 60 0,0
21.01.2019 13:00:00 7,5 -3,4 9,9 3,8 15 8 37 20 NNE 1014,0 20 60 0,0
21.01.2019 12:00:00 5,4 -3,7 8,7 3,8 17 9 36 20 NNE 1015,1 20 60 0,0
21.01.2019 11:00:00 3,7 -4,0 6,6 3,8 16 9 32 17 NE 1015,8 20 60 0,0
21.01.2019 10:00:00 2,0 -4,1 2,9 3,8 11 6 26 14 NE 1016,1 20 60 0,0
21.01.2019 09:00:00 0,5 -4,3 -0,3 3,9 11 6 26 14 E 1016,1 20 32 0,0
21.01.2019 08:00:00 -0,2 -4,3 -0,2 4,0 9 5 26 14 NE 1016,0 20 0 0,0
21.01.2019 07:00:00 0,2 -3,9 -0,3 4,1 10 6 22 12 NE 1015,7 20 0 0,0
21.01.2019 06:00:00 0,3 -3,3 -0,6 4,2 8 4 15 8 ENE 1015,4 20 0 0,0
21.01.2019 05:00:00 0,1 -2,6 -0,1 4,3 12 6 24 13 ENE 1015,4 20 0 0,0
21.01.2019 04:00:00 0,3 -2,1 -0,4 4,4 12 6 23 12 ENE 1015,5 20 0 0,0
21.01.2019 03:00:00 0,4 -1,5 -0,6 4,5 6 3 18 10 E 1015,9 20 0 0,0
21.01.2019 02:00:00 0,6 -1,3 -0,6 4,5 7 4 18 10 E 1015,6 20 0 0,0
21.01.2019 01:00:00 0,9 -0,6 -1,9 4,6 6 4 14 8 ENE 1015,7 20 0 0,0
21.01.2019 00:00:00 -0,9 -1,6 -2,4 4,7 7 4 11 6 NE 1016,1 16 0 0,0
20.01.2019 23:00:00 -0,2 -0,8 -1,6 4,8 5 3 10 6 ENE 1015,8 11 0 0,0
20.01.2019 22:00:00 0,6 -0,4 -1,2 4,8 3 2 14 8 E 1015,5 19 0 0,0
20.01.2019 21:00:00 1,9 0,3 1,6 4,8 0 0 14 8 N 1015,0 20 0 0,0
20.01.2019 20:00:00 2,8 0,8 2,4 4,9 5 3 9 5 ESE 1014,5 20 0 0,0
20.01.2019 19:00:00 3,2 0,9 2,1 4,8 0 0 5 3 N 1014,1 20 0 0,0
20.01.2019 18:00:00 4,6 1,4 3,8 4,8 2 1 14 8 SW 1013,3 20 0 0,0
20.01.2019 17:00:00 6,1 1,8 6,4 4,7 9 5 18 10 SSW 1012,6 20 0 0,0
20.01.2019 16:00:00 6,7 1,8 7,8 4,6 13 7 20 11 SW 1012,0 20 0 0,0
20.01.2019 15:00:00 7,2 0,8 9,6 4,5 11 6 18 10 SW 1011,8 20 10 0,0
20.01.2019 14:00:00 6,8 1,3 9,5 4,3 8 4 14 7 WSW 1012,1 20 0 0,0
20.01.2019 13:00:00 6,4 -0,1 9,6 4,2 0 0 12 6 N 1012,6 20 12 0,0
20.01.2019 12:00:00 5,9 0,4 10,6 4,2 5 3 16 9 E 1013,2 20 60 0,0
20.01.2019 11:00:00 4,1 0,6 5,7 4,3 9 5 18 10 N 1013,6 20 58 0,0
20.01.2019 10:00:00 1,1 0,5 -0,1 4,3 4 2 10 5 E 1014,3 15 31 0,0
20.01.2019 09:00:00 -0,9 -1,2 -1,7 4,4 3 2 10 5 ESE 1014,7 15 0 0,0
20.01.2019 08:00:00 -1,1 -1,4 -2,1 4,5 4 2 7 4 E 1014,3 9 0 0,0
20.01.2019 07:00:00 -0,7 -1,1 -1,8 4,5 2 1 7 4 E 1014,0 8 0 0,0
20.01.2019 06:00:00 -0,1 -0,7 -1,3 4,6 5 3 8 5 NE 1013,8 11 0 0,0
20.01.2019 05:00:00 0,7 0,0 0,1 4,6 6 3 10 6 NNE 1013,7 13 0 0,0
20.01.2019 04:00:00 0,8 0,1 0,9 4,6 5 3 10 5 NE 1014,1 14 0 0,0
20.01.2019 03:00:00 1,6 0,9 1,9 4,6 5 3 9 5 NE 1014,1 14 0 0,0
20.01.2019 02:00:00 2,4 1,5 2,9 4,6 5 3 8 4 NNE 1013,8 10 0 0,2
20.01.2019 01:00:00 2,6 1,1 3,1 4,6 2 1 8 4 ESE 1014,2 14 0 0,0
20.01.2019 00:00:00 2,8 0,5 3,2 4,6 4 2 9 5 SE 1014,3 20 0 0,0
19.01.2019 23:00:00 2,9 0,5 3,1 4,6 0 0 7 4 N 1014,2 20 0 0,0
19.01.2019 22:00:00 2,9 0,6 3,0 4,7 0 0 7 4 N 1014,2 20 0 0,0
19.01.2019 21:00:00 2,6 0,0 2,7 4,7 4 2 11 6 SW 1014,1 20 0 0,0
19.01.2019 20:00:00 2,7 -0,1 2,7 4,7 4 2 7 4 ESE 1014,0 20 0 0,0
19.01.2019 19:00:00 3,1 -0,2 2,8 4,6 5 3 10 5 WNW 1013,6 20 0 0,0
19.01.2019 18:00:00 5,2 0,9 3,9 4,5 0 0 14 7 N 1012,9 20 3 0,0
19.01.2019 17:00:00 7,1 0,7 7,4 4,4 11 6 23 12 S 1012,3 20 60 0,0
19.01.2019 16:00:00 8,8 -0,3 12,5 4,3 12 7 18 10 SW 1012,0 20 60 0,0
19.01.2019 15:00:00 8,5 0,0 11,1 4,1 15 8 22 12 SSW 1012,3 20 58 0,0
19.01.2019 14:00:00 8,1 -1,7 10,9 4,0 6 3 10 5 SSE 1012,9 20 53 0,0
19.01.2019 13:00:00 6,6 -2,8 7,7 3,9 5 3 15 8 E 1014,2 20 43 0,0
19.01.2019 12:00:00 5,6 -3,5 6,8 3,8 6 3 16 9 N 1015,2 20 44 0,0
19.01.2019 11:00:00 3,5 -3,3 2,8 3,8 5 3 16 8 ENE 1016,1 20 39 0,0
19.01.2019 10:00:00 0,5 -2,7 -0,6 4,0 3 2 9 5 E 1016,5 20 10 0,0
19.01.2019 09:00:00 -1,6 -3,6 -3,4 4,0 4 2 8 4 ENE 1016,7 20 5 0,0
19.01.2019 08:00:00 -2,1 -4,1 -3,2 4,1 4 2 8 4 E 1016,4 20 0 0,0
19.01.2019 07:00:00 -1,7 -3,9 -2,2 4,2 2 1 10 5 E 1016,1 20 0 0,0
19.01.2019 06:00:00 -1,0 -3,8 -1,2 4,3 4 2 10 5 E 1016,0 20 0 0,0
19.01.2019 05:00:00 -0,6 -3,1 -1,9 4,4 4 2 9 5 E 1016,0 20 0 0,0
19.01.2019 04:00:00 -1,2 -3,9 -2,0 4,4 3 2 13 7 E 1016,2 20 0 0,0
19.01.2019 03:00:00 -0,9 -3,9 -1,9 4,5 3 2 7 4 ESE 1016,4 20 0 0,0
19.01.2019 02:00:00 -0,5 -3,9 -0,6 4,6 4 2 9 5 ESE 1016,0 20 0 0,0
19.01.2019 01:00:00 0,5 -3,6 -0,4 4,7 4 2 10 5 ESE 1015,8 20 0 0,0
19.01.2019 00:00:00 -0,6 -3,6 -1,3 4,7 3 2 10 5 E 1016,5 20 0 0,0
18.01.2019 23:00:00 0,1 -3,5 -2,4 4,8 5 3 18 10 E 1016,2 20 0 0,0
18.01.2019 22:00:00 -1,5 -4,2 -2,5 4,9 3 2 10 5 E 1016,4 20 0 0,0
18.01.2019 21:00:00 -0,8 -3,8 -1,6 5,0 3 1 7 4 E 1016,0 20 0 0,0
18.01.2019 20:00:00 0,1 -4,0 -0,9 5,0 3 2 16 8 NNW 1015,4 19 0 0,0
18.01.2019 19:00:00 2,1 -3,0 1,6 5,0 11 6 19 10 WNW 1014,6 20 0 0,0
18.01.2019 18:00:00 3,7 -4,3 2,0 5,0 7 4 20 11 W 1013,6 20 0 0,0
18.01.2019 17:00:00 6,3 -4,8 6,0 4,9 13 7 26 14 N 1012,7 20 12 0,0
18.01.2019 16:00:00 8,0 -4,5 11,0 4,8 18 10 27 15 N 1012,2 20 55 0,0
18.01.2019 15:00:00 8,2 -4,6 11,5 4,7 18 10 36 19 NNW 1012,0 20 60 0,0
18.01.2019 14:00:00 8,1 -4,4 11,0 4,5 21 11 35 19 N 1012,3 20 60 0,0
18.01.2019 13:00:00 7,2 -4,3 10,9 4,5 24 13 45 24 N 1012,8 20 60 0,0
18.01.2019 12:00:00 6,6 -3,9 7,7 4,5 24 13 44 24 N 1013,7 20 46 0,0
18.01.2019 11:00:00 6,2 -4,0 9,2 4,5 20 11 38 21 N 1013,6 20 60 0,0
18.01.2019 10:00:00 4,8 -5,0 6,7 4,6 17 9 33 18 N 1013,7 20 60 0,0
18.01.2019 09:00:00 4,0 -5,5 3,0 4,7 16 9 31 17 N 1013,7 20 29 0,0
18.01.2019 08:00:00 3,7 -6,3 3,1 4,8 17 9 38 21 N 1013,7 20 0 0,0
18.01.2019 07:00:00 3,8 -6,5 3,5 4,9 25 13 49 27 N 1013,0 20 0 0,0
18.01.2019 06:00:00 4,1 -6,5 3,0 5,0 27 15 50 27 N 1012,5 20 0 0,0
18.01.2019 05:00:00 4,2 -6,1 0,3 5,1 13 7 34 18 NE 1013,0 20 0 0,0
18.01.2019 04:00:00 4,7 -6,0 2,5 5,1 13 7 40 22 NNE 1013,2 20 0 0,0
18.01.2019 03:00:00 4,8 -5,3 2,8 5,2 14 8 34 18 N 1013,6 20 0 0,0
18.01.2019 02:00:00 4,3 -4,7 2,0 5,3 8 5 27 14 E 1014,1 20 0 0,0
18.01.2019 01:00:00 5,1 -4,5 4,5 5,4 19 10 36 19 NNE 1014,2 20 0 0,0
18.01.2019 00:00:00 5,6 -4,3 3,4 5,5 18 10 30 16 N 1014,1 20 0 0,0
17.01.2019 23:00:00 5,3 -3,8 3,1 5,6 8 4 27 15 NNE 1014,1 20 0 0,0
17.01.2019 22:00:00 5,9 -3,7 4,1 5,7 13 7 24 13 N 1013,7 20 0 0,0
17.01.2019 21:00:00 6,1 -2,3 5,0 5,7 16 9 25 14 NNW 1013,5 20 0 0,0
17.01.2019 20:00:00 6,5 0,0 4,5 5,7 12 7 26 14 N 1013,4 20 0 0,0
17.01.2019 19:00:00 6,0 3,2 5,5 5,7 18 10 29 16 N 1013,2 20 0 0,0
17.01.2019 18:00:00 6,5 4,7 6,6 5,6 9 5 15 8 N 1013,0 20 0 0,2
17.01.2019 17:00:00 7,7 4,6 8,4 5,5 5 3 8 4 W 1012,7 20 0 0,0
17.01.2019 16:00:00 8,2 4,4 9,5 5,4 5 3 12 7 WSW 1012,8 20 2 0,0
17.01.2019 15:00:00 8,4 3,6 8,9 5,3 3 2 9 5 N 1012,9 20 11 0,0
17.01.2019 14:00:00 7,6 3,8 8,9 5,2 0 0 15 8 N 1013,5 20 0 0,0
17.01.2019 13:00:00 6,8 3,6 8,4 5,1 5 3 20 11 N 1014,3 20 1 0,0
17.01.2019 12:00:00 6,4 3,9 7,1 5,0 8 4 18 10 NNE 1015,2 20 2 0,0
17.01.2019 11:00:00 5,2 4,0 5,4 5,0 8 4 14 8 NNE 1016,2 20 0 0,2
17.01.2019 10:00:00 4,3 3,9 5,0 4,9 2 1 7 4 NNE 1016,4 6 0 0,0
17.01.2019 09:00:00 4,1 3,5 4,7 5,0 5 3 8 4 N 1015,9 10 0 0,6
17.01.2019 08:00:00 4,2 3,3 4,7 4,9 3 2 13 7 ENE 1015,9 16 0 0,0
17.01.2019 07:00:00 4,2 3,0 4,6 4,9 4 2 9 5 NNE 1016,0 13 0 0,2
17.01.2019 06:00:00 4,6 2,8 4,8 4,9 5 3 13 7 NE 1015,9 20 0 0,0
17.01.2019 05:00:00 4,5 2,8 4,9 4,9 6 3 10 6 NE 1016,5 19 0 0,0
17.01.2019 04:00:00 4,7 3,0 4,7 4,9 6 4 13 7 N 1017,3 20 0 0,0
17.01.2019 03:00:00 5,0 3,3 5,2 4,9 6 3 14 8 W 1018,0 20 0 0,0
17.01.2019 02:00:00 5,8 2,8 5,7 4,9 0 0 9 5 N 1018,2 20 0 0,0
17.01.2019 01:00:00 6,6 2,3 6,5 4,8 6 3 16 9 ESE 1018,3 20 0 0,0
17.01.2019 00:00:00 6,4 2,3 6,2 4,8 0 0 6 4 N 1018,8 20 0 0,0
16.01.2019 23:00:00 6,5 2,8 6,0 4,8 2 1 13 7 NW 1019,0 20 0 0,0
16.01.2019 22:00:00 6,4 3,0 6,1 4,7 0 0 6 3 N 1019,2 20 0 0,0
16.01.2019 21:00:00 6,8 3,2 6,7 4,7 3 2 8 5 SSW 1019,0 20 0 0,0
16.01.2019 20:00:00 8,0 3,5 7,6 4,6 5 3 16 9 SW 1018,7 20 0 0,0
16.01.2019 19:00:00 7,8 3,5 7,8 4,6 7 4 18 10 W 1018,5 20 0 0,0
16.01.2019 18:00:00 7,9 3,2 7,4 4,5 12 6 20 11 WSW 1018,3 20 0 0,0
16.01.2019 17:00:00 9,2 3,0 9,2 4,4 19 10 28 15 SSW 1017,7 20 2 0,0
16.01.2019 16:00:00 9,6 3,1 10,1 4,2 16 9 24 13 SW 1017,7 20 12 0,0
16.01.2019 15:00:00 11,6 2,3 15,0 4,0 17 9 25 14 SW 1017,5 20 60 0,0
16.01.2019 14:00:00 11,4 0,2 13,4 3,8 0 0 9 5 N 1017,8 20 60 0,0
16.01.2019 13:00:00 7,7 -2,4 11,0 3,7 5 3 15 8 NE 1019,5 20 60 0,0
16.01.2019 12:00:00 5,5 -3,6 9,1 3,7 8 4 16 9 NE 1021,1 20 60 0,0
16.01.2019 11:00:00 2,7 -3,4 4,6 3,8 6 4 15 8 NE 1022,5 20 60 0,0
16.01.2019 10:00:00 -0,6 -4,0 0,8 3,9 6 4 11 6 ENE 1023,3 20 60 0,0
16.01.2019 09:00:00 -2,7 -4,7 -4,4 4,0 6 4 11 6 ENE 1023,7 20 28 0,0
16.01.2019 08:00:00 -3,9 -5,4 -5,2 4,1 6 4 13 7 ENE 1023,5 20 0 0,0
16.01.2019 07:00:00 -3,7 -5,7 -5,3 4,3 5 3 8 4 E 1023,5 20 0 0,0
16.01.2019 06:00:00 -3,7 -5,7 -5,0 4,4 4 2 9 5 ESE 1023,3 20 0 0,0
16.01.2019 05:00:00 -3,4 -5,9 -4,8 4,5 4 2 9 5 E 1023,6 20 0 0,0
16.01.2019 04:00:00 -3,0 -5,5 -4,1 4,6 5 3 8 5 E 1023,7 20 0 0,0

tt = temperature
td = dewpoint
tt 5cm = temperature 5cm
tt -20cm = temperature -20cm
ff = wind speed
fx = gusts
dd = wind direction
ppp = reduced air pressure
vv = visibility
sd = sunshine duration
rr = precipitation

Next stations